Погода в Нефтекамске

Россия / Республика Башкортостан     56°05′18″N   54°14′53″E
темп.,
°C
ветер,
м/с
пор.,
м/с
влажн.,
%
обл.,
%
осадки,
мм/ч
давл.,
гПа
погр.,
м
24 января, пн
пн2423:00−8ююв2289100 0.0 103663
02:00−10ююв2293100 0.0 103612
05:00−9ю2391100 0.0 103671
08:00−11ююз2293100 0.0 103636
11:00−11ююз2293100 0.0 103757
14:00−8зюз1284100 0.0 1037166
17:00−9ююз2293100 0.0 103622
20:00−14ююз119699 0.0 10379
25 января, вт
вт2523:00−18ююз119918 0.0 10369
02:00−20ю1110035 0.0 10369
05:00−20ю1110055 0.0 103510
08:00−21ююз2210060 0.0 103416
11:00−19ю2210073 0.0 103335
14:00−13ююз23885 0.0 1031110
17:00−15ююв22935 0.0 103010
20:00−19ююв22988 0.0 102915
26 января, ср
ср2623:00−20ююв229865 0.0 102820
02:00−21ююв229988 0.0 102822
05:00−21юв229976 0.0 102731
08:00−20юв239945 0.0 102636
11:00−16юв279780 0.0 1025114
14:00−11ююв3594100 0.0 1023178
17:00−10юв3695100 0.0 1022130
20:00−12юв3896100 0.0 1021147
27 января, чт
чт2723:00−10юв3896100 0.4 1019261
02:00−9ю489587 0.6 1018240
05:00−9ю489692 0.8 1019253
08:00−10ююз379791 0.2 1019137
11:00−11ююз379796 0.3 1020156
14:00−9юз359395 0.0 1021232
17:00−10ююв239778 0.1 102142
20:00−15юв2299100 0.0 102121
28 января, пт
пт2823:00−14юв2297100 0.0 102026
02:00−15юв1197100 0.0 102010
05:00−14вюв1197100 0.0 101910
08:00−14в1197100 0.0 10189
11:00−13св1197100 0.0 101817
14:00−9з009387 0.0 1017111
17:00−10сз119783 0.1 101710
20:00−14ссз119977 0.1 101710